Regional Weather Roundup
Issued by NWS Sterling, VA

Home | Current Version | Previous Version | Text Only | Print | Product List | Glossary Off
Versions: 1 2 3 4 5 6 7 8 9 10 11 12 13 14 15 16 17 18 19 20 21 22 23 24 25 26 27 28 29 30 31 32 33 34 35 36 37 38 39 40 41 42 43 44 45 46 47 48 49 50

000
ASUS41 KLWX 090010
RWRLWX

REGIONAL WEATHER ROUNDUP
NATIONAL WEATHER SERVICE BALTIMORE MD/WASHINGTON DC
700 PM EST MON FEB 08 2016

Note: "FAIR" indicates few or no clouds below 12,000 feet
with no significant weather and/or obstructions to visibility.
 TC=TEMPERATURE CELSIUS

 * =Non NWS site. Station does not report precipitation (e.g. rain,
    snow, etc.), thunder, or fog.

DCZ001-MDZ009-015-VAZ040>042-051-053>054-090100-
WASHINGTON METRO

CITY           SKY/WX    TMP DP  RH WIND       PRES   REMARKS
WASHINGTON NAT CLOUDY    43  31  62 SE9       29.72R
DULLES         CLOUDY    42  26  53 SE10      29.69R
ANDREWS AFB    PTCLDY    40  30  68 SE10      29.70R
FT BELVOIR     FAIR      43  29  58 S6        29.71R
QUANTICO       CLOUDY    42  33  70 SE13      29.73R
COLLEGE PARK*  CLOUDY    43  30  61 SE7       29.71R
LEESBURG*      CLOUDY    45  32  61 S9        29.69R
MANASSAS*      CLOUDY    43  30  61 S8        29.70R
GAITHERSBURG*  CLOUDY    39  27  60 SE10      29.73R

$$

MDZ006>007-011-014-090100-
BALTIMORE METRO

CITY           SKY/WX    TMP DP  RH WIND       PRES   REMARKS
BWI AIRPORT    CLOUDY    40  29  64 E9        29.71R
MD SCIENCE CTR   N/A     42  30  62 MISG      29.71S
MARTIN STATE   DRIZZLE   41  36  81 E7        29.74S
ANNAPOLIS      CLOUDY    40  33  76 SE6       29.72S
FORT MEADE*    CLOUDY    39  30  70 SE8       29.73R

$$

MDZ012-015-019>023-090100-
MARYLAND EASTERN SHORE

CITY           SKY/WX    TMP DP  RH WIND       PRES   REMARKS
OCEAN CITY     CLOUDY    38  33  82 E9        29.76F
SALISBURY      CLOUDY    38  34  85 SE5       29.76R
BAY BRIDGE AP*   N/A     41  32  70 CALM      29.73S
CAMBRIDGE*     CLOUDY    37  32  81 SE6       29.74R
EASTON*        CLOUDY    41  34  75 SE5       29.77R

$$

MDZ017>025-090100-
SOUTHERN MARYLAND

CITY           SKY/WX    TMP DP  RH WIND       PRES   REMARKS
PATUXENT RIVER CLOUDY    40  33  76 SE12G20   29.73R
ST INIGOES     CLOUDY    40  33  76 SE10      29.73R
LEONARDTOWN*   CLOUDY    39  32  75 SE6       29.74S

$$

MDZ003>005-090100-
NORTH CENTRAL MARYLAND

CITY           SKY/WX    TMP DP  RH WIND       PRES   REMARKS
FREDERICK*     CLOUDY    41  32  70 CALM      29.71R
HAGERSTOWN APT CLOUDY    41  25  53 SE3       29.65R
WESTMINSTER*   CLOUDY    39  36  87 SE9       29.67R

$$

MDZ501>502-090100-
WESTERN MARYLAND

CITY           SKY/WX    TMP DP  RH WIND       PRES   REMARKS
OAKLAND*       CLOUDY    28  28 100 S6        29.55R
CUMBERLAND*    CLOUDY    39  32  75 E6        29.68R

$$

VAZ025>031-090100-
SHENANDOAH VALLEY

CITY           SKY/WX    TMP DP  RH WIND       PRES   REMARKS
WINCHESTER*    CLOUDY    43  28  56 S12G20    29.65R
FRONT ROYAL*   CLOUDY    41  27  56 SE10G16   29.63S
LURAY*         CLOUDY    39  30  70 S9        29.65R
NEW MARKET*    CLOUDY    38  33  82 SW6       29.64S
STAUNTON*      DRIZZLE   41  36  81 S3        29.66S
WAYNESBORO*    CLOUDY    37  32  82 SE3       29.63F

$$

WVZ021-048>050-054>055-090100-
EASTERN WEST VIRGINIA PANHANDLE

CITY           SKY/WX    TMP DP  RH WIND       PRES   REMARKS
MARTINSBURG    CLOUDY    40  24  53 CALM      29.65R
PETERSBURG*    CLOUDY    41  30  64 CALM      29.62S

$$

VAZ036>039-050-090100-
CENTRAL FOOTHILLS

CITY           SKY/WX    TMP DP  RH WIND       PRES   REMARKS
CHARLOTTESVILL LGT RAIN  41  32  70 SW5       29.67R
CULPEPER*      CLOUDY    43  27  54 S5        29.69S
ORANGE*        CLOUDY    43  30  61 S6        29.70S
GORDONSVILLE*  CLOUDY    42  32  67 CALM      29.67F
WARRENTON*     CLOUDY    43  32  65 SE7       29.69R

$$

VAZ055>057-090100-
NORTH AND CENTRAL PIEDMONT

CITY           SKY/WX    TMP DP  RH WIND       PRES   REMARKS
FREDERICKSBRG* CLOUDY    44  32  63 SE8       29.70R
STAFFORD*      CLOUDY    41  31  66 SE3       29.74S

$$

NCZ024-NYZ072-PAZ021-071-VAZ022-071-090100-
OTHER REGIONAL OBSERVATIONS

CITY           SKY/WX    TMP DP  RH WIND       PRES   REMARKS
NEW YORK CITY  CLOUDY    31  22  69 NE9G16    29.80R WCI  23
PHILADELPHIA   CLOUDY    38  24  57 E7        29.76R
PITTSBURGH     CLOUDY    34  31  88 SW7       29.59R
ROANOKE        CLOUDY    37  34  89 CALM      29.66R
RICHMOND       MOCLDY    41  31  67 SE8       29.70S
RALEIGH        LGT RAIN  41  38  89 SE6       29.68F

$$

ANZ530>537-090100-
MARINE OBSERVATIONS

STATION/POSITION TIME  TEMP    WIND        PRES
                       AIR SEA DIR/SP/G
                 (UTC) (F)     (DEG/KT/KT) (MB)
THOMAS PT LIGHT  0000   40 39  130/  7/  8 1007.2
BALT KEY BRIDGE  2300   41      90/  7/  8 1006.1R
COVE POINT       2300   39     170/ 11/ 12 1007.1R
LEWISETTA        2300   41 41  150/  9/ 12 1006.3R
SOLOMONS ISLAND  2300   41 42  150/ 10/ 12   N/A
PINEY POINT      2300          160/ 11/ 12   N/A

$$




USA.gov is the U.S. government's official web portal to all federal, state and local government web resources and services.